VOZ557 YSSY-YMML

Flight info

Callsign VOZ557
Flight time N/A
Altitude 38000
Route MARUB7 WOL DCT CB DCT BOYSE BOYS9A
Aircraft B737/M-SDE2E3FGHIRWXY/LB1

Departure

Time N/A
Airport Sydney Kingsford Smith International Airport (YSSY)

Arrival

Time 2026-05-07 00:59
Airport Melbourne Airport (YMML)
Time Latitude Longitude Altitude Speed Heading
2026-05-06 23:56 -34.28903 151.14805 25430 ft 410 kts 238°
2026-05-06 23:56 -34.30836 151.12251 25963 ft 413 kts 238°
2026-05-06 23:56 -34.32782 151.09678 26547 ft 416 kts 239°
2026-05-06 23:56 -34.34744 151.07080 26973 ft 421 kts 239°
2026-05-06 23:57 -34.36728 151.04450 27418 ft 425 kts 239°
2026-05-06 23:57 -34.38732 151.01792 27752 ft 431 kts 239°
2026-05-06 23:57 -34.40764 150.99094 28147 ft 435 kts 239°
2026-05-06 23:57 -34.42809 150.96383 28677 ft 436 kts 239°
2026-05-06 23:58 -34.44832 150.93702 29178 ft 437 kts 240°
2026-05-06 23:58 -34.46911 150.90941 29626 ft 440 kts 240°
2026-05-06 23:58 -34.48948 150.88231 30083 ft 441 kts 240°
2026-05-06 23:58 -34.51012 150.85487 30637 ft 440 kts 240°
2026-05-06 23:59 -34.53066 150.82754 31192 ft 436 kts 240°
2026-05-06 23:59 -34.55097 150.80050 31839 ft 430 kts 240°
2026-05-06 23:59 -34.56847 150.77231 32475 ft 408 kts 250°
2026-05-06 23:59 -34.58248 150.74284 33067 ft 400 kts 251°
2026-05-07 00:00 -34.59581 150.71328 33468 ft 399 kts 251°
2026-05-07 00:00 -34.60879 150.68399 33842 ft 399 kts 251°
2026-05-07 00:00 -34.62200 150.65438 34255 ft 398 kts 251°
2026-05-07 00:00 -34.63527 150.62494 34621 ft 398 kts 251°
2026-05-07 00:01 -34.64863 150.59553 34859 ft 399 kts 250°
2026-05-07 00:01 -34.66213 150.56599 35117 ft 400 kts 250°
2026-05-07 00:01 -34.67568 150.53645 35466 ft 400 kts 250°
2026-05-07 00:01 -34.68923 150.50699 35787 ft 399 kts 250°
2026-05-07 00:02 -34.70279 150.47748 36053 ft 400 kts 250°
2026-05-07 00:02 -34.71638 150.44790 36295 ft 402 kts 249°
2026-05-07 00:02 -34.74369 150.38834 36630 ft 408 kts 249°
2026-05-07 00:03 -34.75752 150.35817 36870 ft 409 kts 249°
2026-05-07 00:03 -34.77136 150.32795 37153 ft 409 kts 249°
2026-05-07 00:03 -34.78518 150.29779 37502 ft 407 kts 248°
2026-05-07 00:03 -34.79897 150.26766 37745 ft 409 kts 249°
2026-05-07 00:04 -34.81284 150.23724 37916 ft 412 kts 249°
2026-05-07 00:04 -34.82677 150.20670 38072 ft 415 kts 249°
2026-05-07 00:04 -34.85461 150.14559 38049 ft 415 kts 248°
2026-05-07 00:05 -34.88249 150.08439 38055 ft 412 kts 248°
2026-05-07 00:05 -34.91014 150.02353 38073 ft 410 kts 248°
2026-05-07 00:06 -34.93764 149.96284 38128 ft 410 kts 248°
2026-05-07 00:06 -34.96534 149.90146 38094 ft 421 kts 248°
2026-05-07 00:07 -34.99373 149.83864 38074 ft 423 kts 247°
2026-05-07 00:07 -35.02215 149.77565 38086 ft 424 kts 247°
2026-05-07 00:08 -35.05054 149.71257 38101 ft 425 kts 247°
2026-05-07 00:08 -35.07875 149.64978 38124 ft 425 kts 247°
2026-05-07 00:09 -35.10717 149.58638 38103 ft 425 kts 246°
2026-05-07 00:09 -35.13553 149.52303 38097 ft 425 kts 246°
2026-05-07 00:10 -35.16379 149.45976 38080 ft 424 kts 246°
2026-05-07 00:10 -35.19194 149.39660 38068 ft 422 kts 246°
2026-05-07 00:11 -35.21978 149.33403 38066 ft 422 kts 246°
2026-05-07 00:11 -35.24778 149.27098 38051 ft 421 kts 246°
2026-05-07 00:12 -35.27574 149.20797 38047 ft 421 kts 246°
2026-05-07 00:12 -35.30882 149.14827 38051 ft 425 kts 239°
2026-05-07 00:13 -35.34421 149.09022 38056 ft 425 kts 238°
2026-05-07 00:13 -35.37932 149.03242 38112 ft 426 kts 238°
2026-05-07 00:14 -35.41446 148.97408 38105 ft 425 kts 238°
2026-05-07 00:14 -35.44942 148.91575 38115 ft 425 kts 238°
2026-05-07 00:15 -35.48432 148.85737 38116 ft 424 kts 238°
2026-05-07 00:15 -35.51895 148.79934 38133 ft 424 kts 238°
2026-05-07 00:16 -35.55380 148.74083 38136 ft 424 kts 238°
2026-05-07 00:16 -35.58858 148.68235 38149 ft 423 kts 238°
2026-05-07 00:17 -35.62324 148.62398 38130 ft 422 kts 238°
2026-05-07 00:17 -35.65779 148.56571 38146 ft 422 kts 238°
2026-05-07 00:18 -35.69199 148.50791 38150 ft 421 kts 238°
2026-05-07 00:18 -35.72640 148.44967 38162 ft 420 kts 238°
2026-05-07 00:19 -35.76071 148.39150 38154 ft 420 kts 238°
2026-05-07 00:19 -35.79473 148.33372 38186 ft 420 kts 237°
2026-05-07 00:20 -35.82894 148.27552 38183 ft 419 kts 238°
2026-05-07 00:20 -35.86314 148.21725 38185 ft 420 kts 238°
2026-05-07 00:21 -35.89731 148.15894 38172 ft 419 kts 237°
2026-05-07 00:21 -35.93134 148.10075 38222 ft 419 kts 237°
2026-05-07 00:22 -35.96545 148.04233 38188 ft 420 kts 237°
2026-05-07 00:22 -35.99936 147.98415 38197 ft 421 kts 237°
2026-05-07 00:23 -36.03355 147.92540 38169 ft 422 kts 237°
2026-05-07 00:23 -36.06772 147.86658 38178 ft 421 kts 237°
2026-05-07 00:24 -36.10186 147.80772 38182 ft 421 kts 237°
2026-05-07 00:24 -36.13570 147.74928 38182 ft 421 kts 237°
2026-05-07 00:25 -36.16978 147.69031 38192 ft 421 kts 237°
2026-05-07 00:25 -36.20384 147.63128 38208 ft 421 kts 236°
2026-05-07 00:26 -36.23785 147.57223 38198 ft 421 kts 236°
2026-05-07 00:26 -36.27160 147.51354 38190 ft 421 kts 236°
2026-05-07 00:27 -36.30554 147.45441 38192 ft 421 kts 236°
2026-05-07 00:27 -36.33946 147.39521 38188 ft 421 kts 236°
2026-05-07 00:28 -36.37333 147.33601 38185 ft 421 kts 236°
2026-05-07 00:28 -36.40698 147.27707 38185 ft 421 kts 236°
2026-05-07 00:29 -36.44084 147.21767 38189 ft 421 kts 236°
2026-05-07 00:30 -36.50858 147.09852 38184 ft 423 kts 235°
2026-05-07 00:30 -36.54221 147.03923 38189 ft 422 kts 235°
2026-05-07 00:31 -36.57592 146.97968 38191 ft 421 kts 235°
2026-05-07 00:31 -36.60955 146.92018 38199 ft 420 kts 235°
2026-05-07 00:32 -36.64309 146.86072 38203 ft 419 kts 235°
2026-05-07 00:32 -36.67631 146.80173 38197 ft 418 kts 234°
2026-05-07 00:33 -36.70957 146.74255 38191 ft 416 kts 235°
2026-05-07 00:33 -36.74275 146.68343 38224 ft 416 kts 234°
2026-05-07 00:34 -36.77587 146.62430 38213 ft 415 kts 234°
2026-05-07 00:34 -36.80863 146.56572 38203 ft 414 kts 234°
2026-05-07 00:35 -36.84155 146.50675 38212 ft 413 kts 234°
2026-05-07 00:35 -36.87437 146.44784 38114 ft 414 kts 234°
2026-05-07 00:36 -36.89097 146.41801 37489 ft 419 kts 234°
2026-05-07 00:36 -36.90754 146.38822 36805 ft 417 kts 233°
2026-05-07 00:36 -36.92382 146.35891 36101 ft 416 kts 233°
2026-05-07 00:36 -36.94032 146.32917 35283 ft 417 kts 232°
2026-05-07 00:37 -36.95689 146.29930 34388 ft 419 kts 231°
2026-05-07 00:37 -36.97343 146.26944 33407 ft 419 kts 230°
2026-05-07 00:37 -36.98989 146.23967 32708 ft 411 kts 229°
2026-05-07 00:37 -37.00587 146.21066 31889 ft 402 kts 227°
2026-05-07 00:38 -37.02149 146.18231 31211 ft 390 kts 226°
2026-05-07 00:38 -37.03667 146.15471 30598 ft 380 kts 225°
2026-05-07 00:38 -37.05159 146.12763 29903 ft 376 kts 224°
2026-05-07 00:38 -37.06616 146.10125 29217 ft 370 kts 224°
2026-05-07 00:39 -37.08063 146.07497 28587 ft 363 kts 224°
2026-05-07 00:39 -37.09483 146.04918 27960 ft 357 kts 224°
2026-05-07 00:39 -37.10878 146.02383 27324 ft 349 kts 223°
2026-05-07 00:39 -37.12243 145.99899 26742 ft 343 kts 223°
2026-05-07 00:40 -37.13585 145.97457 26157 ft 338 kts 223°
2026-05-07 00:40 -37.14909 145.95047 25563 ft 333 kts 223°
2026-05-07 00:40 -37.16216 145.92665 25012 ft 330 kts 223°
2026-05-07 00:40 -37.17512 145.90304 24396 ft 327 kts 223°
2026-05-07 00:41 -37.18774 145.88002 23829 ft 324 kts 223°
2026-05-07 00:41 -37.20045 145.85687 23162 ft 320 kts 223°
2026-05-07 00:41 -37.21294 145.83405 22556 ft 313 kts 223°
2026-05-07 00:41 -37.22516 145.81169 22008 ft 310 kts 223°
2026-05-07 00:42 -37.23739 145.78933 21411 ft 312 kts 224°
2026-05-07 00:42 -37.24965 145.76690 20811 ft 309 kts 224°
2026-05-07 00:42 -37.26168 145.74482 20296 ft 304 kts 224°
2026-05-07 00:42 -37.27357 145.72301 19726 ft 301 kts 224°
2026-05-07 00:43 -37.28519 145.70170 19174 ft 298 kts 224°
2026-05-07 00:43 -37.29679 145.68024 18623 ft 297 kts 226°
2026-05-07 00:43 -37.30578 145.65629 17996 ft 310 kts 239°
2026-05-07 00:43 -37.31151 145.63003 17417 ft 312 kts 244°
2026-05-07 00:44 -37.31649 145.60345 16861 ft 313 kts 246°
2026-05-07 00:44 -37.32138 145.57673 16282 ft 315 kts 247°
2026-05-07 00:44 -37.32630 145.55012 15728 ft 311 kts 248°
2026-05-07 00:44 -37.33122 145.52375 15135 ft 308 kts 249°
2026-05-07 00:45 -37.33612 145.49767 14615 ft 305 kts 249°
2026-05-07 00:45 -37.34097 145.47221 14086 ft 302 kts 250°
2026-05-07 00:45 -37.34588 145.44659 13478 ft 300 kts 250°
2026-05-07 00:45 -37.35075 145.42119 12907 ft 297 kts 250°
2026-05-07 00:46 -37.35557 145.39603 12385 ft 296 kts 250°
2026-05-07 00:46 -37.36040 145.37081 11813 ft 297 kts 251°
2026-05-07 00:46 -37.36521 145.34565 11244 ft 295 kts 251°
2026-05-07 00:46 -37.37001 145.32058 10762 ft 290 kts 251°
2026-05-07 00:47 -37.37467 145.29614 10391 ft 284 kts 251°
2026-05-07 00:47 -37.37918 145.27247 10191 ft 271 kts 251°
2026-05-07 00:47 -37.38343 145.25010 10025 ft 257 kts 250°
2026-05-07 00:47 -37.38746 145.22894 9722 ft 250 kts 250°
2026-05-07 00:48 -37.39148 145.20798 9415 ft 244 kts 250°
2026-05-07 00:48 -37.39543 145.18738 9073 ft 240 kts 250°
2026-05-07 00:48 -37.39930 145.16706 8739 ft 237 kts 250°
2026-05-07 00:48 -37.40312 145.14700 8397 ft 235 kts 250°
2026-05-07 00:49 -37.40694 145.12698 8071 ft 236 kts 250°
2026-05-07 00:49 -37.41077 145.10685 7756 ft 236 kts 250°
2026-05-07 00:49 -37.41456 145.08689 7421 ft 234 kts 250°
2026-05-07 00:49 -37.41827 145.06730 7086 ft 233 kts 250°
2026-05-07 00:50 -37.42201 145.04757 6742 ft 231 kts 250°
2026-05-07 00:50 -37.42570 145.02806 6479 ft 226 kts 250°
2026-05-07 00:50 -37.42924 145.00917 6363 ft 220 kts 250°
2026-05-07 00:50 -37.43279 144.99043 6073 ft 217 kts 250°
2026-05-07 00:51 -37.43617 144.97238 5773 ft 208 kts 250°
2026-05-07 00:51 -37.43942 144.95505 5497 ft 199 kts 250°
2026-05-07 00:51 -37.44242 144.93859 5257 ft 190 kts 252°
2026-05-07 00:51 -37.44480 144.92216 4853 ft 191 kts 253°
2026-05-07 00:52 -37.44704 144.90601 4562 ft 187 kts 253°
2026-05-07 00:52 -37.44928 144.89002 4270 ft 184 kts 252°
2026-05-07 00:52 -37.45147 144.87437 3925 ft 180 kts 252°
2026-05-07 00:52 -37.45365 144.85884 3556 ft 179 kts 252°
2026-05-07 00:53 -37.45570 144.84411 3457 ft 164 kts 252°
2026-05-07 00:53 -37.45759 144.83047 3306 ft 152 kts 251°
2026-05-07 00:53 -37.45993 144.81791 3054 ft 144 kts 236°
2026-05-07 00:53 -37.46621 144.80842 3031 ft 142 kts 209°
2026-05-07 00:54 -37.47591 144.80692 3036 ft 143 kts 187°
2026-05-07 00:54 -37.48569 144.80704 3011 ft 141 kts 185°
2026-05-07 00:54 -37.49552 144.80725 2998 ft 143 kts 185°
2026-05-07 00:54 -37.50548 144.80798 3031 ft 145 kts 182°
2026-05-07 00:55 -37.51530 144.80934 3003 ft 137 kts 180°
2026-05-07 00:55 -37.52453 144.81090 2990 ft 133 kts 180°
2026-05-07 00:55 -37.53368 144.81254 2870 ft 133 kts 180°
2026-05-07 00:55 -37.54296 144.81424 2721 ft 137 kts 180°
2026-05-07 00:56 -37.55223 144.81598 2534 ft 135 kts 180°
2026-05-07 00:56 -37.56112 144.81768 2333 ft 122 kts 181°
2026-05-07 00:56 -37.56943 144.81922 2176 ft 121 kts 182°
2026-05-07 00:56 -37.57784 144.82080 2043 ft 120 kts 182°
2026-05-07 00:57 -37.58614 144.82242 1830 ft 117 kts 180°
2026-05-07 00:57 -37.59384 144.82388 1669 ft 110 kts 182°
2026-05-07 00:57 -37.60156 144.82527 1475 ft 116 kts 180°
2026-05-07 00:57 -37.60985 144.82656 1317 ft 124 kts 176°
2026-05-07 00:58 -37.61807 144.82831 1151 ft 118 kts 181°
2026-05-07 00:58 -37.62605 144.82975 1028 ft 118 kts 178°
2026-05-07 00:58 -37.63445 144.83150 897 ft 120 kts 177°
2026-05-07 00:58 -37.64266 144.83305 680 ft 119 kts 181°
2026-05-07 00:59 -37.65925 144.83609 431 ft 115 kts 177°
2026-05-07 00:59 -37.66631 144.83736 398 ft 87 kts 171°
2026-05-07 00:59 -37.66997 144.83838 385 ft 41 kts 154°
2026-05-07 01:00 -37.67141 144.83965 380 ft 14 kts 140°
2026-05-07 01:00 -37.67166 144.83990 379 ft 0 kts 141°
2026-05-07 01:01 -37.67174 144.83999 379 ft 8 kts 141°
2026-05-07 01:01 -37.67216 144.84061 378 ft 10 kts 112°
2026-05-07 01:01 -37.67219 144.84151 378 ft 12 kts 74°
2026-05-07 01:01 -37.67170 144.84230 381 ft 11 kts 32°
2026-05-07 01:02 -37.67094 144.84250 383 ft 11 kts 352°
2026-05-07 01:02 -37.67050 144.84258 384 ft 1 kts 56°
2026-05-07 01:02 -37.67051 144.84291 384 ft 10 kts 97°
2026-05-07 01:02 -37.67050 144.84381 386 ft 10 kts 81°
2026-05-07 01:03 -37.67025 144.84461 387 ft 10 kts 59°
2026-05-07 01:03 -37.67013 144.84531 389 ft 3 kts 83°
2026-05-07 01:03 -37.67012 144.84549 389 ft 0 kts 83°
2026-05-07 01:03 -37.67011 144.84551 389 ft 2 kts 84°
2026-05-07 01:04 -37.67010 144.84570 389 ft 4 kts 86°
2026-05-07 01:04 -37.67015 144.84612 390 ft 4 kts 133°
2026-05-07 01:04 -37.67051 144.84620 389 ft 6 kts 169°
2026-05-07 01:04 -37.67061 144.84622 389 ft 1 kts 169°
2026-05-07 01:05 -37.67069 144.84624 389 ft 1 kts 170°
2026-05-07 01:05 -37.67070 144.84624 389 ft 0 kts 170°
2026-05-07 01:05 -37.67071 144.84624 389 ft 0 kts 171°
2026-05-07 01:05 -37.67072 144.84625 389 ft 0 kts 171°
2026-05-07 01:06 -37.67073 144.84625 389 ft 0 kts 171°